Cloud_Cover
0 0 0 0 0 0 0 0 0 0 0 0 0 0 12 56 76 80 80 80 64 24 0 0 24 48 64 76 80 88 88 88 88 80 76 88 88 88 88 88 76 80 88 88 88 88 88 88 88 88 88 88 88 88 88 88 88 88 88 88 88 88 88 88 88 88 88 88 88
0 0 0 0 0 0 0 0 0 0 0 0 0 32 56 44 68 80 80 80 76 44 8 0 36 56 64 56 80 88 88 88 88 68 64 88 88 88 88 80 56 68 88 88 88 88 88 88 88 88 88 88 88 88 88 88 88 88 88 88 88 88 88 88 88 88 88 88 92
0 0 0 0 0 0 0 0 0 0 0 0 32 64 76 64 76 76 56 44 76 48 12 0 36 68 80 80 80 80 76 88 88 80 80 88 88 88 88 76 68 76 88 88 88 88 88 88 88 88 88 88 88 88 88 88 88 88 88 88 88 92 92 88 88 88 92 92 92
0 0 0 0 0 0 8 8 8 8 8 0 44 56 64 80 80 80 68 32 44 36 20 0 36 68 80 80 88 68 64 88 88 80 80 88 88 80 76 68 64 76 88 88 88 88 88 88 88 88 88 88 88 88 88 88 88 88 88 88 88 88 88 88 68 80 92 92 92
0 0 0 0 0 0 20 44 12 12 32 36 68 80 76 68 76 80 80 80 64 56 44 0 0 32 68 80 88 68 56 64 64 64 68 88 92 80 68 68 80 88 88 88 88 88 88 88 88 88 88 88 88 88 88 88 88 88 88 88 88 88 88 92 88 76 76 92 76
0 0 0 12 0 8 12 8 48 56 56 80 68 76 80 80 80 56 36 36 36 48 48 0 0 12 44 64 48 64 80 80 88 76 68 88 76 64 56 68 88 88 88 88 88 88 88 88 88 88 88 88 88 92 92 88 92 88 88 80 80 88 88 92 92 92 92 92 48
0 0 8 32 36 36 44 48 68 76 76 76 76 76 76 68 76 56 36 32 24 44 44 0 0 8 20 32 36 48 64 80 76 80 88 88 88 80 76 56 80 88 88 88 88 88 88 88 88 88 88 88 88 88 92 92 92 92 88 80 68 76 88 92 92 92 92 92 92
0 0 12 44 36 44 64 76 76 64 56 76 76 76 80 80 80 76 64 32 44 64 56 0 0 0 0 0 36 56 68 80 80 80 80 88 88 88 76 56 80 92 92 88 88 88 88 88 88 88 80 68 80 88 92 92 92 92 92 88 80 80 80 92 92 92 92 92 92
0 0 0 12 64 64 56 76 76 76 76 76 48 64 80 80 80 76 64 44 48 64 64 0 0 0 0 0 24 44 56 68 80 80 80 88 88 88 88 88 92 92 92 88 88 88 88 88 88 88 88 88 88 88 88 92 92 92 92 88 88 76 76 92 92 92 92 92 92
0 8 32 64 68 76 76 76 76 76 76 76 76 76 76 68 76 80 68 48 36 56 64 0 0 12 32 20 36 44 48 64 76 80 80 88 88 88 88 88 92 92 92 80 80 88 88 88 88 88 88 88 88 88 88 92 92 92 88 80 88 88 88 92 92 92 92 92 92
8 44 76 76 76 76 76 76 76 76 76 76 76 76 68 36 68 80 76 76 56 64 56 12 12 44 68 44 44 44 48 68 80 80 80 80 88 88 88 92 92 92 92 92 88 88 88 88 88 88 88 88 80 76 68 92 92 92 88 80 88 88 88 92 88 88 92 88 92
24 48 76 76 76 76 76 76 76 76 76 76 76 76 76 76 80 80 76 68 68 56 44 24 48 68 80 80 64 68 76 68 80 80 80 88 88 88 88 88 92 92 92 92 92 88 88 88 88 88 80 68 80 80 80 92 92 92 88 80 88 88 88 88 92 92 92 88 88
44 64 76 76 76 76 76 76 76 76 76 76 76 76 76 76 80 80 80 76 64 44 36 32 56 68 76 76 76 76 76 76 76 80 80 88 80 88 88 88 92 92 92 92 92 88 88 88 80 88 80 64 76 68 68 88 92 92 88 88 88 88 88 88 88 88 88 88 88
64 76 76 76 76 76 76 76 76 76 76 76 76 76 76 76 80 80 76 68 76 64 48 48 48 64 76 76 80 80 80 80 68 76 80 80 80 88 88 88 92 92 92 92 92 88 88 88 80 80 88 80 68 80 88 88 88 92 88 88 88 88 80 88 88 88 88 80 88
64 76 76 76 76 76 76 76 76 76 76 76 76 68 56 56 68 76 68 36 56 68 76 76 76 76 76 76 80 80 80 80 80 80 80 80 80 80 88 92 92 92 92 92 92 92 92 88 80 80 80 76 48 64 88 92 88 88 92 88 88 88 88 88 88 88 88 88 88
64 68 68 68 76 76 76 76 76 76 76 76 76 48 20 24 44 48 48 24 48 64 68 76 76 76 76 76 80 80 80 80 80 80 80 80 80 80 88 92 92 92 92 92 92 92 92 92 88 88 80 80 64 68 88 92 88 88 92 88 88 88 88 88 88 88 88 88 88
64 68 68 68 68 68 76 76 76 76 76 76 76 48 24 32 32 32 36 48 68 68 68 76 76 76 76 76 80 80 80 80 80 80 80 80 80 80 88 92 92 92 92 92 92 92 92 92 92 88 88 80 80 80 88 92 88 92 92 92 92 92 92 88 88 88 88 88 88
68 68 68 68 68 68 76 76 76 76 76 76 76 56 44 56 56 36 32 68 76 76 76 76 76 76 76 76 80 80 80 80 80 80 80 80 80 80 88 92 92 92 92 92 92 92 92 92 88 88 88 88 64 76 92 92 88 92 92 92 92 92 88 92 92 92 88 88 88
68 68 68 68 68 68 76 76 76 76 76 76 76 68 64 64 56 36 24 68 76 76 76 76 76 76 76 80 80 80 80 80 80 80 80 80 80 80 88 92 92 92 92 92 92 92 88 68 68 80 88 88 36 44 76 92 92 92 92 92 92 88 88 92 92 92 92 88 88
68 68 68 68 68 68 76 76 76 76 76 76 76 76 76 64 36 36 56 76 76 76 76 76 76 76 76 80 80 80 80 80 80 80 80 80 80 80 88 92 92 92 92 92 92 88 76 48 68 80 88 88 36 36 68 92 92 92 92 92 92 88 80 92 92 92 92 92 92
68 68 68 68 68 76 76 76 76 76 76 76 76 76 76 76 48 36 44 76 76 76 76 76 76 76 76 76 80 80 80 80 80 80 80 80 80 80 80 92 92 92 92 92 92 88 76 56 76 88 88 88 36 44 76 92 92 92 92 92 92 88 80 88 92 92 92 92 92
68 68 68 68 68 76 76 76 76 76 76 68 76 76 76 76 44 20 24 76 76 76 76 76 76 76 76 76 80 80 80 80 80 80 80 80 80 80 80 80 92 92 88 88 88 80 68 76 80 88 80 56 36 56 80 88 92 92 92 92 88 88 88 92 92 92 92 92 92
68 68 68 68 76 76 76 76 76 76 68 48 48 64 76 76 44 20 20 76 76 76 76 76 76 76 76 76 80 80 80 80 80 80 80 80 80 80 80 88 88 88 88 88 88 80 76 88 88 76 56 44 36 64 88 88 92 92 92 92 92 92 92 92 92 92 92 92 92
68 68 68 68 76 76 76 76 76 48 32 44 44 64 68 44 36 20 20 68 76 76 76 76 76 76 76 76 80 80 80 80 76 80 80 80 80 80 68 48 76 88 88 88 92 88 88 88 88 64 36 36 44 68 88 88 92 92 92 92 92 92 92 92 92 92 92 92 92
68 68 68 64 48 64 76 76 76 36 8 32 64 76 76 64 44 20 8 12 56 76 76 76 76 76 76 76 76 76 76 76 80 80 80 76 64 68 64 32 68 80 88 88 88 92 92 88 88 80 64 24 48 76 92 92 88 92 92 92 92 92 92 92 92 92 92 92 92
32 36 48 68 32 20 12 20 12 0 0 0 44 64 68 48 32 12 0 0 48 68 76 76 76 76 68 56 68 76 76 76 80 80 80 76 76 64 48 44 76 88 88 88 88 88 92 88 88 88 68 12 68 88 92 88 88 92 92 92 92 92 92 92 92 92 92 92 92
32 24 20 8 0 0 0 0 0 0 0 0 0 20 36 48 12 0 0 0 0 32 56 76 76 76 76 76 76 76 76 76 76 76 76 76 76 68 64 44 12 44 88 88 88 92 92 88 88 80 64 32 76 92 92 80 88 88 92 92 92 92 92 92 92 92 92 92 92
0 0 0 0 0 0 0 0 0 0 0 0 0 0 0 8 0 0 0 0 0 20 36 44 68 68 68 76 76 76 76 76 76 80 76 68 64 32 8 24 56 76 88 88 88 88 88 88 88 76 48 32 76 88 80 80 80 80 88 88 92 92 92 92 92 92 92 92 92
0 0 0 0 0 0 0 0 0 0 0 0 0 0 0 0 0 0 0 0 0 24 64 76 36 12 8 32 56 56 56 76 76 64 56 76 36 12 0 0 64 80 80 88 88 80 80 88 88 88 80 64 64 68 80 80 80 80 80 88 92 92 92 92 92 92 92 92 92
0 0 0 0 0 0 0 0 0 0 0 0 0 0 0 0 0 0 0 0 0 0 0 0 0 0 0 0 0 8 24 76 76 64 44 20 0 0 0 0 64 80 80 88 88 80 76 88 88 68 56 80 56 64 80 80 80 80 80 92 92 92 92 92 92 92 92 92 92
0 0 0 0 0 0 0 0 0 0 0 0 0 0 0 0 0 0 0 0 0 0 0 0 0 0 0 0 0 0 12 56 36 12 0 0 0 0 0 0 64 80 80 88 88 88 88 88 80 80 56 0 20 48 80 80 80 80 80 92 92 92 88 92 92 92 92 92 92
0 8 8 8 0 0 0 0 0 0 0 0 0 0 0 0 0 0 0 0 0 0 0 0 0 0 0 0 0 0 8 32 56 32 0 0 0 0 8 24 68 80 80 88 88 88 88 76 36 12 0 0 0 36 80 76 80 80 80 88 92 92 92 92 92 92 92 92 92
8 12 12 20 8 0 0 0 20 12 0 0 0 0 0 0 8 8 0 0 0 0 0 0 0 0 0 0 0 0 0 12 8 0 0 0 0 0 8 44 76 80 80 80 92 92 88 68 56 24 0 0 0 36 76 76 80 88 92 88 88 88 92 92 92 92 88 92 92
8 20 24 24 20 20 12 12 44 32 12 0 0 8 12 24 32 32 20 8 0 0 0 0 0 0 0 0 0 0 0 0 0 0 0 0 0 0 8 36 76 80 80 80 80 88 92 88 36 8 0 0 0 36 76 80 80 80 88 88 88 88 88 92 92 92 92 92 92
20 44 64 44 36 36 36 48 44 44 36 36 32 36 44 48 56 48 48 48 20 8 0 0 0 0 0 0 0 0 0 0 0 0 0 0 0 0 8 32 68 80 80 80 76 80 88 88 80 44 8 0 8 36 68 80 80 88 80 80 88 88 88 92 92 92 92 92 92
44 64 68 68 48 48 64 68 68 68 68 56 68 68 68 56 68 76 76 76 48 20 8 0 0 0 0 0 0 0 0 0 0 0 0 0 0 0 0 12 64 80 80 80 80 80 88 88 80 48 12 0 12 36 68 76 80 80 88 80 88 88 88 88 92 92 92 92 92
56 64 68 68 68 68 68 68 68 68 68 68 68 68 68 68 76 76 76 76 48 36 24 0 0 0 0 0 0 0 0 0 0 0 0 0 0 0 0 0 56 80 80 80 88 88 88 88 88 64 32 8 8 32 64 76 80 88 88 88 88 88 80 88 88 92 92 92 88
48 56 68 68 68 68 68 68 68 68 68 68 68 76 76 76 76 76 76 76 76 76 56 8 0 0 0 0 0 0 0 0 0 8 12 0 0 0 0 0 36 68 80 80 80 88 88 88 88 76 56 24 12 24 48 68 80 88 92 88 88 92 92 92 88 88 88 88 80
48 64 68 76 76 76 76 76 76 76 76 68 76 76 76 76 76 76 76 76 76 76 64 36 12 0 0 0 0 0 0 0 0 8 12 0 0 0 0 0 8 44 88 88 88 88 80 88 88 88 76 56 32 32 36 36 76 88 88 88 88 92 92 92 92 88 80 88 88
64 76 76 76 76 76 76 76 76 76 76 68 76 76 76 76 76 76 76 76 76 76 76 76 32 12 8 8 8 0 0 0 0 0 0 0 0 0 0 0 0 36 76 88 88 88 80 80 80 80 80 68 36 44 48 20 64 80 88 92 92 92 92 92 92 92 92 92 92
68 76 76 76 76 68 68 68 68 68 76 76 76 76 76 76 76 76 76 76 76 76 76 76 36 20 12 12 8 8 0 0 0 0 0 0 0 0 0 12 8 20 36 56 88 88 80 80 80 80 80 76 48 56 64 24 56 68 80 88 92 92 92 88 92 92 92 92 92